Time,TemperatureF,DewpointF,PressureIn,WindDirection,WindDirectionDegrees,WindSpeedMPH,WindSpeedGustMPH,Humidity,HourlyPrecipIn,Conditions,Clouds,dailyrainin,SoftwareType,DateUTC
2013-12-04 00:01:00,64.8,61.2,30.01,SE,134,0.0,0.0,88,0.00,,BKN070,0.00,VWS V14.01,2013-12-04 05:01:00,
2013-12-04 00:06:00,64.8,61.2,30.00,SE,134,0.0,0.0,88,0.00,,BKN070,0.00,VWS V14.01,2013-12-04 05:06:00,
2013-12-04 00:11:00,64.7,61.4,30.00,SE,134,0.0,0.0,89,0.00,,BKN070,0.00,VWS V14.01,2013-12-04 05:11:00,
2013-12-04 00:16:00,64.7,61.4,30.00,SE,134,0.0,0.0,89,0.00,,CLR,0.00,VWS V14.01,2013-12-04 05:16:00,
2013-12-04 00:21:00,64.6,61.3,30.00,SE,134,0.0,0.0,89,0.00,,BKN070,0.00,VWS V14.01,2013-12-04 05:21:00,
2013-12-04 00:26:00,64.5,61.2,30.00,SE,134,0.0,0.0,89,0.00,,BKN070,0.00,VWS V14.01,2013-12-04 05:26:00,
2013-12-04 00:31:00,64.5,61.2,30.00,SE,134,0.0,0.0,89,0.00,,BKN070,0.00,VWS V14.01,2013-12-04 05:31:00,
2013-12-04 00:36:00,64.4,61.1,30.00,SE,134,0.0,0.0,89,0.00,,BKN070,0.00,VWS V14.01,2013-12-04 05:36:00,
2013-12-04 00:41:00,64.3,61.0,30.00,SE,134,0.0,0.0,89,0.00,,BKN070,0.00,VWS V14.01,2013-12-04 05:41:00,
2013-12-04 00:46:00,64.2,60.9,30.00,SE,134,0.0,0.0,89,0.00,,BKN070,0.00,VWS V14.01,2013-12-04 05:46:00,
2013-12-04 00:51:00,64.1,60.8,30.00,SE,134,0.0,0.0,89,0.00,,BKN070,0.00,VWS V14.01,2013-12-04 05:51:00,
2013-12-04 00:56:00,64.0,60.7,30.00,SE,134,0.0,0.0,89,0.00,,BKN070,0.00,VWS V14.01,2013-12-04 05:56:00,
2013-12-04 01:01:00,64.0,60.7,30.00,SE,134,0.0,0.0,89,0.00,,BKN070,0.00,VWS V14.01,2013-12-04 06:01:00,
2013-12-04 01:06:00,63.9,60.6,30.00,SE,134,0.0,0.0,89,0.00,,BKN070,0.00,VWS V14.01,2013-12-04 06:06:00,
2013-12-04 01:11:00,63.8,60.5,30.00,SE,134,0.0,0.0,89,0.00,,BKN070,0.00,VWS V14.01,2013-12-04 06:11:00,
2013-12-04 01:16:00,63.7,60.4,29.99,SE,134,0.0,0.0,89,0.00,,BKN070,0.00,VWS V14.01,2013-12-04 06:16:00,
2013-12-04 01:21:00,63.7,60.4,29.99,SE,134,0.0,0.0,89,0.00,,BKN070,0.00,VWS V14.01,2013-12-04 06:21:00,
2013-12-04 01:26:00,63.6,60.3,29.99,SE,134,0.0,0.0,89,0.00,,BKN070,0.00,VWS V14.01,2013-12-04 06:26:00,
2013-12-04 01:31:00,63.5,60.2,29.99,SE,134,0.0,0.0,89,0.00,,BKN070,0.00,VWS V14.01,2013-12-04 06:31:00,
2013-12-04 01:36:00,63.4,60.1,29.99,SE,134,0.0,0.0,89,0.00,,SCT070,0.00,VWS V14.01,2013-12-04 06:36:00,
2013-12-04 01:41:00,63.4,60.1,29.99,SE,134,0.0,0.0,89,0.00,,SCT070,0.00,VWS V14.01,2013-12-04 06:41:00,
2013-12-04 01:46:00,63.4,60.1,29.99,SE,134,0.0,0.0,89,0.00,,SCT070,0.00,VWS V14.01,2013-12-04 06:46:00,
2013-12-04 01:51:00,63.3,60.0,29.99,SE,134,0.0,0.0,89,0.00,,SCT070,0.00,VWS V14.01,2013-12-04 06:51:00,
2013-12-04 01:56:00,63.2,59.9,29.99,SE,134,0.0,0.0,89,0.00,,BKN070,0.00,VWS V14.01,2013-12-04 06:56:00,
2013-12-04 02:01:00,63.2,59.9,29.99,SE,134,0.0,0.0,89,0.00,,SCT070,0.00,VWS V14.01,2013-12-04 07:01:00,
2013-12-04 02:06:00,63.1,59.8,29.99,SE,134,0.0,0.0,89,0.00,,SCT070,0.00,VWS V14.01,2013-12-04 07:06:00,
2013-12-04 02:11:00,63.1,59.8,29.99,SE,134,0.0,0.0,89,0.00,,SCT070,0.00,VWS V14.01,2013-12-04 07:11:00,
2013-12-04 02:16:00,63.0,59.7,29.99,SE,134,0.0,0.0,89,0.00,,BKN070,0.00,VWS V14.01,2013-12-04 07:16:00,
2013-12-04 02:21:00,63.0,59.7,29.99,SE,134,0.0,0.0,89,0.00,,SCT070,0.00,VWS V14.01,2013-12-04 07:21:00,
2013-12-04 02:26:00,62.9,59.6,29.99,SE,134,0.0,0.0,89,0.00,,SCT070,0.00,VWS V14.01,2013-12-04 07:26:00,
2013-12-04 02:31:00,62.9,59.6,29.99,SE,134,0.0,0.0,89,0.00,,BKN070,0.00,VWS V14.01,2013-12-04 07:31:00,
2013-12-04 02:36:00,62.9,59.6,29.98,SE,134,0.0,0.0,89,0.00,,SCT034,0.00,VWS V14.01,2013-12-04 07:36:00,
2013-12-04 02:41:00,62.9,59.6,29.98,SE,134,0.0,0.0,89,0.00,,SCT034,0.00,VWS V14.01,2013-12-04 07:41:00,
2013-12-04 02:46:00,62.9,59.6,29.98,SE,134,0.0,0.0,89,0.00,,SCT034,0.00,VWS V14.01,2013-12-04 07:46:00,
2013-12-04 02:51:00,62.9,59.6,29.98,SE,134,0.0,0.0,89,0.00,,SCT043,0.00,VWS V14.01,2013-12-04 07:51:00,
2013-12-04 02:56:00,62.9,59.6,29.98,SE,134,0.0,0.0,89,0.00,,SCT043,0.00,VWS V14.01,2013-12-04 07:56:00,
2013-12-04 03:01:00,62.9,59.6,29.98,SE,134,0.0,0.0,89,0.00,,SCT043,0.00,VWS V14.01,2013-12-04 08:01:00,
2013-12-04 03:06:00,62.9,59.6,29.98,SE,134,0.0,0.0,89,0.00,,SCT043,0.00,VWS V14.01,2013-12-04 08:06:00,
2013-12-04 03:11:00,62.9,59.6,29.98,SE,134,0.0,0.0,89,0.00,,SCT043,0.00,VWS V14.01,2013-12-04 08:11:00,
2013-12-04 03:16:00,62.9,59.6,29.99,SE,134,0.0,0.0,89,0.00,,BKN070,0.00,VWS V14.01,2013-12-04 08:16:00,
2013-12-04 03:21:00,62.9,59.6,29.99,SE,134,0.0,0.0,89,0.00,,SCT043,0.00,VWS V14.01,2013-12-04 08:21:00,
2013-12-04 03:26:00,62.9,59.6,29.99,SE,134,0.0,0.0,89,0.00,,SCT043,0.00,VWS V14.01,2013-12-04 08:26:00,
2013-12-04 03:31:00,62.9,59.6,29.99,SE,134,0.0,0.0,89,0.00,,BKN032,0.00,VWS V14.01,2013-12-04 08:31:00,
2013-12-04 03:36:00,62.9,59.6,29.99,SE,134,0.0,0.0,89,0.00,,OVC070,0.00,VWS V14.01,2013-12-04 08:36:00,
2013-12-04 03:41:00,63.0,59.7,29.99,SE,134,0.0,0.0,89,0.00,,OVC070,0.00,VWS V14.01,2013-12-04 08:41:00,
2013-12-04 03:46:00,63.0,59.7,29.99,SE,134,0.0,0.0,89,0.00,,OVC070,0.00,VWS V14.01,2013-12-04 08:46:00,
2013-12-04 03:51:00,63.0,59.7,29.99,SE,134,0.0,0.0,89,0.00,,OVC060,0.00,VWS V14.01,2013-12-04 08:51:00,
2013-12-04 03:56:00,63.0,59.7,29.99,SE,134,0.0,0.0,89,0.00,,BKN032,0.00,VWS V14.01,2013-12-04 08:56:00,
2013-12-04 04:01:00,63.1,59.8,29.99,SE,134,0.0,0.0,89,0.00,,OVC060,0.00,VWS V14.01,2013-12-04 09:01:00,
2013-12-04 04:06:00,63.1,59.8,29.99,SE,134,0.0,0.0,89,0.00,,OVC060,0.00,VWS V14.01,2013-12-04 09:06:00,
2013-12-04 04:11:00,63.0,59.7,29.99,SE,134,0.0,0.0,89,0.00,,OVC060,0.00,VWS V14.01,2013-12-04 09:11:00,
2013-12-04 04:16:00,63.0,59.7,29.99,SE,134,0.0,0.0,89,0.00,,BKN032,0.00,VWS V14.01,2013-12-04 09:16:00,
2013-12-04 04:21:00,63.0,59.7,29.99,SE,134,0.0,0.0,89,0.00,,OVC060,0.00,VWS V14.01,2013-12-04 09:21:00,
2013-12-04 04:26:00,62.9,59.6,30.00,SE,134,0.0,0.0,89,0.00,,OVC060,0.00,VWS V14.01,2013-12-04 09:26:00,
2013-12-04 04:31:00,62.9,59.6,29.99,SE,134,0.0,0.0,89,0.00,,OVC060,0.00,VWS V14.01,2013-12-04 09:31:00,
2013-12-04 04:36:00,62.9,59.6,29.99,SE,134,0.0,0.0,89,0.00,,SCT070,0.00,VWS V14.01,2013-12-04 09:36:00,
2013-12-04 04:41:00,62.9,59.6,30.00,SE,134,0.0,0.0,89,0.00,,SCT070,0.00,VWS V14.01,2013-12-04 09:41:00,
2013-12-04 04:46:00,62.8,59.5,29.99,SE,134,0.0,0.0,89,0.00,,SCT070,0.00,VWS V14.01,2013-12-04 09:46:00,
2013-12-04 04:51:00,62.7,59.4,30.00,SE,134,0.0,0.0,89,0.00,,SCT070,0.00,VWS V14.01,2013-12-04 09:51:00,
2013-12-04 04:56:00,62.7,59.4,30.00,SE,134,0.0,0.0,89,0.00,,OVC070,0.00,VWS V14.01,2013-12-04 09:56:00,
2013-12-04 05:01:00,62.6,59.3,30.00,SE,134,0.0,0.0,89,0.00,,SCT070,0.00,VWS V14.01,2013-12-04 10:01:00,
2013-12-04 05:06:00,62.5,59.2,30.00,SE,134,0.0,0.0,89,0.00,,SCT070,0.00,VWS V14.01,2013-12-04 10:06:00,
2013-12-04 05:11:00,62.5,59.2,30.00,SE,134,0.0,0.0,89,0.00,,SCT070,0.00,VWS V14.01,2013-12-04 10:11:00,
2013-12-04 05:16:00,62.5,59.2,30.00,SE,134,0.0,0.0,89,0.00,,OVC070,0.00,VWS V14.01,2013-12-04 10:16:00,
2013-12-04 05:21:00,62.4,59.1,30.00,SE,134,0.0,0.0,89,0.00,,SCT070,0.00,VWS V14.01,2013-12-04 10:21:00,
2013-12-04 05:26:00,62.4,59.1,30.00,SE,134,0.0,0.0,89,0.00,,SCT070,0.00,VWS V14.01,2013-12-04 10:26:00,
2013-12-04 05:31:00,62.3,59.0,30.00,SE,134,0.0,0.0,89,0.00,,SCT070,0.00,VWS V14.01,2013-12-04 10:31:00,
2013-12-04 05:36:00,62.3,59.0,30.01,SE,134,0.0,0.0,89,0.00,,CLR,0.00,VWS V14.01,2013-12-04 10:36:00,
2013-12-04 05:41:00,62.2,58.9,30.01,SE,134,0.0,0.0,89,0.00,,CLR,0.00,VWS V14.01,2013-12-04 10:41:00,
2013-12-04 05:46:00,62.0,58.7,30.01,SE,134,0.0,0.0,89,0.00,,CLR,0.00,VWS V14.01,2013-12-04 10:46:00,
2013-12-04 05:51:00,62.0,58.7,30.01,SE,134,0.0,0.0,89,0.00,,CLR,0.00,VWS V14.01,2013-12-04 10:51:00,
2013-12-04 05:56:00,61.9,58.6,30.02,SE,134,0.0,0.0,89,0.00,,CLR,0.00,VWS V14.01,2013-12-04 10:56:00,
2013-12-04 06:01:00,61.8,58.5,30.02,SE,134,0.0,0.0,89,0.00,,CLR,0.00,VWS V14.01,2013-12-04 11:01:00,
2013-12-04 06:06:00,61.7,58.4,30.02,SE,134,0.0,0.0,89,0.00,,CLR,0.00,VWS V14.01,2013-12-04 11:06:00,
2013-12-04 06:11:00,61.6,58.3,30.02,SE,134,0.0,0.0,89,0.00,,CLR,0.00,VWS V14.01,2013-12-04 11:11:00,
2013-12-04 06:16:00,61.6,58.3,30.02,SE,134,0.0,0.0,89,0.00,,CLR,0.00,VWS V14.01,2013-12-04 11:16:00,
2013-12-04 06:21:00,61.7,58.4,30.02,SE,134,0.0,0.0,89,0.00,,CLR,0.00,VWS V14.01,2013-12-04 11:21:00,
2013-12-04 06:26:00,61.7,58.4,30.03,SE,134,0.0,0.0,89,0.00,,CLR,0.00,VWS V14.01,2013-12-04 11:26:00,
2013-12-04 06:31:00,61.6,58.3,30.02,SE,134,0.0,0.0,89,0.00,,SKC,0.00,VWS V14.01,2013-12-04 11:31:00,
2013-12-04 06:36:00,61.7,58.4,30.03,SE,134,0.0,0.0,89,0.00,,SKC,0.00,VWS V14.01,2013-12-04 11:36:00,
2013-12-04 06:41:00,61.7,58.4,30.03,SE,134,0.0,0.0,89,0.00,,SKC,0.00,VWS V14.01,2013-12-04 11:41:00,
2013-12-04 06:46:00,61.6,58.3,30.03,SE,134,0.0,0.0,89,0.00,,SKC,0.00,VWS V14.01,2013-12-04 11:46:00,
2013-12-04 06:51:00,61.6,58.3,30.03,SE,134,0.0,0.0,89,0.00,,SKC,0.00,VWS V14.01,2013-12-04 11:51:00,
2013-12-04 06:56:00,61.6,58.3,30.03,SE,134,0.0,0.0,89,0.00,,SKC,0.00,VWS V14.01,2013-12-04 11:56:00,
2013-12-04 07:01:00,61.5,58.2,30.03,SE,134,0.0,0.0,89,0.00,,SKC,0.00,VWS V14.01,2013-12-04 12:01:00,
2013-12-04 07:06:00,61.6,58.3,30.03,SE,134,0.0,0.0,89,0.00,,SKC,0.00,VWS V14.01,2013-12-04 12:06:00,
2013-12-04 07:11:00,61.6,58.3,30.04,SE,134,0.0,0.0,89,0.00,,SKC,0.00,VWS V14.01,2013-12-04 12:11:00,
2013-12-04 07:16:00,61.7,58.4,30.04,SE,134,0.0,0.0,89,0.00,,SKC,0.00,VWS V14.01,2013-12-04 12:16:00,
2013-12-04 07:21:00,61.7,58.4,30.04,SE,134,0.0,0.0,89,0.00,,SKC,0.00,VWS V14.01,2013-12-04 12:21:00,
2013-12-04 07:26:00,61.8,58.5,30.04,SE,134,0.0,0.0,89,0.00,,SKC,0.00,VWS V14.01,2013-12-04 12:26:00,
2013-12-04 07:31:00,61.8,58.5,30.04,SE,134,0.0,0.0,89,0.00,,SCT250,0.00,VWS V14.01,2013-12-04 12:31:00,
2013-12-04 07:36:00,62.1,58.8,30.05,SE,134,0.0,0.0,89,0.00,,SCT250,0.00,VWS V14.01,2013-12-04 12:36:00,
2013-12-04 07:41:00,62.3,59.0,30.05,SE,134,0.0,0.0,89,0.00,,SCT250,0.00,VWS V14.01,2013-12-04 12:41:00,
2013-12-04 07:46:00,62.7,59.4,30.05,SE,134,0.0,1.0,89,0.00,,SCT250,0.00,VWS V14.01,2013-12-04 12:46:00,
2013-12-04 07:51:00,63.2,59.9,30.05,SE,134,0.0,1.0,89,0.00,,SCT250,0.00,VWS V14.01,2013-12-04 12:51:00,
2013-12-04 07:56:00,63.3,60.0,30.05,SE,129,0.0,2.0,89,0.00,,SCT250,0.00,VWS V14.01,2013-12-04 12:56:00,
2013-12-04 08:01:00,63.5,60.2,30.05,SE,134,0.0,1.0,89,0.00,,SCT250,0.00,VWS V14.01,2013-12-04 13:01:00,
2013-12-04 08:06:00,63.8,60.5,30.05,SE,132,1.0,4.0,89,0.00,,SCT250,0.00,VWS V14.01,2013-12-04 13:06:00,
2013-12-04 08:11:00,64.0,60.7,30.05,SE,139,0.0,4.0,89,0.00,,SCT250,0.00,VWS V14.01,2013-12-04 13:11:00,
2013-12-04 08:16:00,64.3,61.0,30.05,SSE,154,1.0,4.0,89,0.00,,SCT250,0.00,VWS V14.01,2013-12-04 13:16:00,
2013-12-04 08:21:00,64.6,61.3,30.06,SSE,150,0.0,4.0,89,0.00,,SCT250,0.00,VWS V14.01,2013-12-04 13:21:00,
2013-12-04 08:26:00,64.9,61.6,30.06,SE,145,0.0,4.0,89,0.00,,SCT250,0.00,VWS V14.01,2013-12-04 13:26:00,
2013-12-04 08:31:00,65.1,61.5,30.06,SE,142,1.0,2.0,88,0.00,,SCT250,0.00,VWS V14.01,2013-12-04 13:31:00,
2013-12-04 08:36:00,65.5,62.2,30.06,SE,137,1.0,4.0,89,0.00,,SCT250,0.00,VWS V14.01,2013-12-04 13:36:00,
2013-12-04 08:41:00,65.8,62.2,30.06,SE,138,0.0,4.0,88,0.00,,SCT250,0.00,VWS V14.01,2013-12-04 13:41:00,
2013-12-04 08:46:00,66.4,62.7,30.06,SE,138,0.0,4.0,88,0.00,,SCT250,0.00,VWS V14.01,2013-12-04 13:46:00,
2013-12-04 08:51:00,66.8,63.1,30.06,SE,139,1.0,4.0,88,0.00,,SCT250,0.00,VWS V14.01,2013-12-04 13:51:00,
2013-12-04 08:56:00,67.2,63.5,30.07,SE,138,0.0,5.0,88,0.00,,SCT250,0.00,VWS V14.01,2013-12-04 13:56:00,
2013-12-04 09:01:00,67.7,64.0,30.07,SE,137,0.0,1.0,88,0.00,,SCT250,0.00,VWS V14.01,2013-12-04 14:01:00,
2013-12-04 09:06:00,68.3,64.6,30.07,SW,230,0.0,2.0,88,0.00,,SCT250,0.00,VWS V14.01,2013-12-04 14:06:00,
2013-12-04 09:11:00,68.9,64.9,30.07,South,176,0.0,3.0,87,0.00,,SCT250,0.00,VWS V14.01,2013-12-04 14:11:00,
2013-12-04 09:16:00,69.5,65.5,30.08,SE,139,0.0,3.0,87,0.00,,SCT250,0.00,VWS V14.01,2013-12-04 14:16:00,
2013-12-04 09:21:00,70.2,65.8,30.08,SE,139,0.0,3.0,86,0.00,,SCT250,0.00,VWS V14.01,2013-12-04 14:21:00,
2013-12-04 09:26:00,70.8,66.4,30.08,SE,146,1.0,3.0,86,0.00,,SCT250,0.00,VWS V14.01,2013-12-04 14:26:00,
2013-12-04 09:31:00,71.5,66.8,30.08,SSW,210,3.0,3.0,85,0.00,,SCT250,0.00,VWS V14.01,2013-12-04 14:31:00,
2013-12-04 09:36:00,72.0,66.9,30.08,SSW,213,0.0,4.0,84,0.00,,BKN250,0.00,VWS V14.01,2013-12-04 14:36:00,
2013-12-04 09:40:00,72.7,67.2,30.08,SSW,210,0.0,4.0,83,0.00,,BKN250,0.00,VWS V14.01,2013-12-04 14:40:00,
2013-12-04 09:45:00,73.2,67.4,30.09,SSW,207,0.0,4.0,82,0.00,,BKN250,0.00,VWS V14.01,2013-12-04 14:45:00,
2013-12-04 09:50:00,73.6,67.4,30.09,SSW,207,0.0,4.0,81,0.00,,BKN250,0.00,VWS V14.01,2013-12-04 14:50:00,
2013-12-04 09:55:00,74.1,67.9,30.09,SSW,205,0.0,4.0,81,0.00,,BKN250,0.00,VWS V14.01,2013-12-04 14:55:00,
2013-12-04 10:00:00,74.8,68.2,30.09,SSW,209,0.0,0.0,80,0.00,,BKN250,0.00,VWS V14.01,2013-12-04 15:00:00,
2013-12-04 10:05:00,75.4,68.4,30.09,SSW,212,1.0,3.0,79,0.00,,BKN250,0.00,VWS V14.01,2013-12-04 15:05:00,
2013-12-04 10:10:00,75.6,68.3,30.09,SSW,212,0.0,4.0,78,0.00,,BKN250,0.00,VWS V14.01,2013-12-04 15:10:00,
2013-12-04 10:15:00,76.1,68.4,30.09,SSW,200,1.0,4.0,77,0.00,,BKN250,0.00,VWS V14.01,2013-12-04 15:15:00,
2013-12-04 10:20:00,76.6,68.9,30.09,South,179,0.0,4.0,77,0.00,,BKN250,0.00,VWS V14.01,2013-12-04 15:20:00,
2013-12-04 10:25:00,77.3,68.8,30.09,South,180,0.0,4.0,75,0.00,,BKN250,0.00,VWS V14.01,2013-12-04 15:25:00,
2013-12-04 10:30:00,77.6,69.1,30.09,SE,124,0.0,2.0,75,0.00,,BKN250,0.00,VWS V14.01,2013-12-04 15:30:00,
2013-12-04 10:35:00,78.0,69.1,30.09,SE,138,0.0,4.0,74,0.00,,BKN250,0.00,VWS V14.01,2013-12-04 15:35:00,
2013-12-04 10:40:00,78.4,69.4,30.09,SE,136,0.0,4.0,74,0.00,,BKN250,0.00,VWS V14.01,2013-12-04 15:40:00,
2013-12-04 10:45:00,78.9,69.1,30.09,SSE,157,1.0,4.0,72,0.00,,BKN250,0.00,VWS V14.01,2013-12-04 15:45:00,
2013-12-04 10:50:00,79.3,69.1,30.09,SSW,208,4.0,5.0,71,0.00,,BKN250,0.00,VWS V14.01,2013-12-04 15:50:00,
2013-12-04 10:55:00,79.4,68.8,30.09,SSW,211,0.0,5.0,70,0.00,,BKN250,0.00,VWS V14.01,2013-12-04 15:55:00,
2013-12-04 11:00:00,79.4,68.8,30.08,SSW,209,0.0,5.0,70,0.00,,BKN250,0.00,VWS V14.01,2013-12-04 16:00:00,
2013-12-04 11:05:00,79.5,68.9,30.08,SW,214,1.0,6.0,70,0.00,,BKN250,0.00,VWS V14.01,2013-12-04 16:05:00,
2013-12-04 11:10:00,79.8,68.7,30.08,SW,231,1.0,6.0,69,0.00,,BKN250,0.00,VWS V14.01,2013-12-04 16:10:00,
2013-12-04 11:15:00,80.2,69.1,30.08,SW,217,2.0,6.0,69,0.00,,BKN250,0.00,VWS V14.01,2013-12-04 16:15:00,
2013-12-04 11:20:00,80.0,68.5,30.08,WSW,258,2.0,6.0,68,0.00,,BKN250,0.00,VWS V14.01,2013-12-04 16:20:00,
2013-12-04 11:25:00,79.8,68.3,30.08,SW,232,3.0,8.0,68,0.00,,BKN250,0.00,VWS V14.01,2013-12-04 16:25:00,
2013-12-04 11:30:00,79.5,68.4,30.08,SSW,211,7.0,7.0,69,0.00,,BKN250,0.00,VWS V14.01,2013-12-04 16:30:00,
2013-12-04 11:35:00,79.8,68.3,30.08,SW,214,4.0,8.0,68,0.00,,BKN250,0.00,VWS V14.01,2013-12-04 16:35:00,
2013-12-04 11:40:00,79.9,68.4,30.08,SSW,206,3.0,8.0,68,0.00,,BKN250,0.00,VWS V14.01,2013-12-04 16:40:00,
2013-12-04 11:45:00,79.7,68.2,30.07,SSW,200,0.0,8.0,68,0.00,,BKN250,0.00,VWS V14.01,2013-12-04 16:45:00,
2013-12-04 11:50:00,80.0,68.9,30.07,WNW,284,0.0,8.0,69,0.00,,BKN250,0.00,VWS V14.01,2013-12-04 16:50:00,
2013-12-04 11:55:00,80.2,67.8,30.07,SW,228,0.0,8.0,66,0.00,,BKN250,0.00,VWS V14.01,2013-12-04 16:55:00,
2013-12-04 12:00:00,80.4,68.0,30.07,SW,223,3.0,7.0,66,0.00,,BKN250,0.00,VWS V14.01,2013-12-04 17:00:00,
2013-12-04 12:05:00,80.3,68.3,30.07,SW,219,0.0,7.0,67,0.00,,BKN250,0.00,VWS V14.01,2013-12-04 17:05:00,
2013-12-04 12:10:00,80.7,68.3,30.06,SW,223,2.0,7.0,66,0.00,,BKN250,0.00,VWS V14.01,2013-12-04 17:10:00,
2013-12-04 12:15:00,81.2,68.3,30.06,WSW,242,1.0,7.0,65,0.00,,BKN250,0.00,VWS V14.01,2013-12-04 17:15:00,
2013-12-04 12:20:00,82.3,68.9,30.06,SW,229,2.0,7.0,64,0.00,,BKN250,0.00,VWS V14.01,2013-12-04 17:20:00,
2013-12-04 12:25:00,83.2,67.9,30.06,SW,223,3.0,7.0,60,0.00,,BKN250,0.00,VWS V14.01,2013-12-04 17:25:00,
2013-12-04 12:30:00,83.5,68.2,30.05,SW,219,4.0,6.0,60,0.00,,BKN250,0.00,VWS V14.01,2013-12-04 17:30:00,
2013-12-04 12:35:00,83.2,67.4,30.05,SW,225,0.0,6.0,59,0.00,,BKN030,0.00,VWS V14.01,2013-12-04 17:35:00,
2013-12-04 12:40:00,82.8,67.0,30.05,SW,232,2.0,6.0,59,0.00,,BKN030,0.00,VWS V14.01,2013-12-04 17:40:00,
2013-12-04 12:45:00,82.3,66.6,30.05,WSW,238,0.0,6.0,59,0.00,,BKN030,0.00,VWS V14.01,2013-12-04 17:45:00,
2013-12-04 12:50:00,81.8,66.6,30.05,WSW,247,0.0,6.0,60,0.00,,BKN030,0.00,VWS V14.01,2013-12-04 17:50:00,
2013-12-04 12:55:00,81.6,66.9,30.05,WSW,247,0.0,6.0,61,0.00,,BKN030,0.00,VWS V14.01,2013-12-04 17:55:00,
2013-12-04 13:00:00,81.2,66.9,30.04,WSW,246,0.0,0.0,62,0.00,,BKN030,0.00,VWS V14.01,2013-12-04 18:00:00,
2013-12-04 13:05:00,81.2,67.4,30.04,WSW,246,0.0,0.0,63,0.00,,BKN030,0.00,VWS V14.01,2013-12-04 18:05:00,
2013-12-04 13:10:00,81.1,67.3,30.04,WSW,247,0.0,2.0,63,0.00,,BKN030,0.00,VWS V14.01,2013-12-04 18:10:00,
2013-12-04 13:15:00,81.0,67.2,30.03,WSW,250,0.0,2.0,63,0.00,,BKN030,0.00,VWS V14.01,2013-12-04 18:15:00,
2013-12-04 13:20:00,81.1,67.3,30.03,WSW,250,1.0,2.0,63,0.00,,BKN030,0.00,VWS V14.01,2013-12-04 18:20:00,
2013-12-04 13:25:00,81.0,67.2,30.03,WSW,248,0.0,2.0,63,0.00,,BKN030,0.00,VWS V14.01,2013-12-04 18:25:00,
2013-12-04 13:30:00,80.9,67.1,30.03,WSW,244,0.0,0.0,63,0.00,,BKN030,0.00,VWS V14.01,2013-12-04 18:30:00,
2013-12-04 13:35:00,81.2,66.9,30.03,West,259,2.0,2.0,62,0.00,,BKN035,0.00,VWS V14.01,2013-12-04 18:35:00,
2013-12-04 13:40:00,81.3,66.6,30.03,West,263,2.0,2.0,61,0.00,,BKN035,0.00,VWS V14.01,2013-12-04 18:40:00,
2013-12-04 13:45:00,81.6,67.3,30.03,West,275,0.0,2.0,62,0.00,,BKN035,0.00,VWS V14.01,2013-12-04 18:45:00,
2013-12-04 13:50:00,82.2,66.9,30.02,SW,223,2.0,4.0,60,0.00,,BKN035,0.00,VWS V14.01,2013-12-04 18:50:00,
2013-12-04 13:55:00,82.3,67.0,30.02,SW,217,1.0,4.0,60,0.00,,BKN035,0.00,VWS V14.01,2013-12-04 18:55:00,
2013-12-04 14:00:00,82.3,67.0,30.02,SW,222,2.0,3.0,60,0.00,,BKN035,0.00,VWS V14.01,2013-12-04 19:00:00,
2013-12-04 14:05:00,82.2,66.9,30.02,SW,217,0.0,6.0,60,0.00,,BKN035,0.00,VWS V14.01,2013-12-04 19:05:00,
2013-12-04 14:10:00,82.1,66.8,30.02,SSW,205,3.0,7.0,60,0.00,,BKN035,0.00,VWS V14.01,2013-12-04 19:10:00,
2013-12-04 14:15:00,82.2,66.5,30.02,SW,218,1.0,7.0,59,0.00,,BKN035,0.00,VWS V14.01,2013-12-04 19:15:00,
2013-12-04 14:20:00,82.3,66.6,30.02,WSW,238,1.0,7.0,59,0.00,,BKN035,0.00,VWS V14.01,2013-12-04 19:20:00,
2013-12-04 14:25:00,82.1,66.4,30.02,SW,215,0.0,7.0,59,0.00,,BKN035,0.00,VWS V14.01,2013-12-04 19:25:00,
2013-12-04 14:30:00,82.1,66.8,30.02,SW,215,0.0,3.0,60,0.00,,BKN035,0.00,VWS V14.01,2013-12-04 19:30:00,
2013-12-04 14:35:00,81.9,66.7,30.02,SW,215,1.0,3.0,60,0.00,,BKN080,0.00,VWS V14.01,2013-12-04 19:35:00,
2013-12-04 14:40:00,81.7,66.5,30.02,SW,215,0.0,3.0,60,0.00,,BKN080,0.00,VWS V14.01,2013-12-04 19:40:00,
2013-12-04 14:45:00,81.5,66.3,30.02,SW,215,1.0,3.0,60,0.00,,BKN080,0.00,VWS V14.01,2013-12-04 19:45:00,
2013-12-04 14:50:00,81.6,66.4,30.02,SW,215,0.0,3.0,60,0.00,,BKN080,0.00,VWS V14.01,2013-12-04 19:50:00,
2013-12-04 14:55:00,81.7,66.5,30.02,SW,215,0.0,3.0,60,0.00,,BKN080,0.00,VWS V14.01,2013-12-04 19:55:00,
2013-12-04 15:00:00,82.1,66.8,30.02,SW,215,1.0,2.0,60,0.00,,BKN080,0.00,VWS V14.01,2013-12-04 20:00:00,
2013-12-04 15:05:00,82.3,66.6,30.02,SW,234,1.0,4.0,59,0.00,,BKN080,0.00,VWS V14.01,2013-12-04 20:05:00,
2013-12-04 15:10:00,82.1,66.8,30.02,SW,234,1.0,4.0,60,0.00,,BKN080,0.00,VWS V14.01,2013-12-04 20:10:00,
2013-12-04 15:15:00,82.0,66.3,30.02,SW,234,1.0,4.0,59,0.00,,BKN080,0.00,VWS V14.01,2013-12-04 20:15:00,
2013-12-04 15:20:00,81.9,66.7,30.02,SW,236,0.0,4.0,60,0.00,,BKN080,0.00,VWS V14.01,2013-12-04 20:20:00,
2013-12-04 15:25:00,81.8,67.1,30.02,SW,233,2.0,4.0,61,0.00,,BKN080,0.00,VWS V14.01,2013-12-04 20:25:00,
2013-12-04 15:30:00,81.7,66.5,30.02,SW,233,0.0,1.0,60,0.00,,BKN080,0.00,VWS V14.01,2013-12-04 20:30:00,
2013-12-04 15:35:00,81.9,66.2,30.02,SW,233,0.0,2.0,59,0.00,,OVC080,0.00,VWS V14.01,2013-12-04 20:35:00,
2013-12-04 15:40:00,82.1,66.4,30.02,SW,233,0.0,2.0,59,0.00,,OVC080,0.00,VWS V14.01,2013-12-04 20:40:00,
2013-12-04 15:45:00,82.3,66.6,30.03,SW,233,0.0,2.0,59,0.00,,OVC080,0.00,VWS V14.01,2013-12-04 20:45:00,
2013-12-04 15:50:00,82.4,67.1,30.02,SW,233,0.0,2.0,60,0.00,,OVC080,0.00,VWS V14.01,2013-12-04 20:50:00,
2013-12-04 15:55:00,82.4,67.1,30.03,SW,233,0.0,2.0,60,0.00,,OVC080,0.00,VWS V14.01,2013-12-04 20:55:00,
2013-12-04 16:00:00,82.2,66.9,30.03,SW,233,0.0,1.0,60,0.00,,OVC080,0.00,VWS V14.01,2013-12-04 21:00:00,
2013-12-04 16:05:00,82.0,66.8,30.02,SW,233,0.0,1.0,60,0.00,,OVC080,0.00,VWS V14.01,2013-12-04 21:05:00,
2013-12-04 16:10:00,81.8,67.1,30.02,SW,233,0.0,1.0,61,0.00,,OVC080,0.00,VWS V14.01,2013-12-04 21:10:00,
2013-12-04 16:15:00,81.8,67.1,30.02,SW,233,0.0,1.0,61,0.00,,OVC080,0.00,VWS V14.01,2013-12-04 21:15:00,
2013-12-04 16:20:00,81.8,67.1,30.02,SW,233,0.0,1.0,61,0.00,,OVC080,0.00,VWS V14.01,2013-12-04 21:20:00,
2013-12-04 16:25:00,81.9,67.1,30.03,SW,233,0.0,1.0,61,0.00,,OVC080,0.00,VWS V14.01,2013-12-04 21:25:00,
2013-12-04 16:30:00,82.0,66.8,30.03,SW,233,0.0,0.0,60,0.00,,OVC080,0.00,VWS V14.01,2013-12-04 21:30:00,
2013-12-04 16:35:00,82.0,66.8,30.03,SW,233,0.0,0.0,60,0.00,,BKN120,0.00,VWS V14.01,2013-12-04 21:35:00,
2013-12-04 16:40:00,82.0,66.8,30.03,SW,233,0.0,2.0,60,0.00,,BKN120,0.00,VWS V14.01,2013-12-04 21:40:00,
2013-12-04 16:45:00,81.9,67.1,30.03,SW,233,0.0,2.0,61,0.00,,BKN120,0.00,VWS V14.01,2013-12-04 21:45:00,
2013-12-04 16:50:00,81.8,67.1,30.03,SW,233,0.0,2.0,61,0.00,,BKN120,0.00,VWS V14.01,2013-12-04 21:50:00,
2013-12-04 16:55:00,81.6,66.9,30.04,SW,233,0.0,2.0,61,0.00,,BKN120,0.00,VWS V14.01,2013-12-04 21:55:00,
2013-12-04 17:00:00,81.3,67.1,30.04,SW,233,0.0,0.0,62,0.00,,BKN120,0.00,VWS V14.01,2013-12-04 22:00:00,
2013-12-04 17:05:00,81.0,66.8,30.04,SW,233,0.0,0.0,62,0.00,,BKN120,0.00,VWS V14.01,2013-12-04 22:05:00,
2013-12-04 17:10:00,80.7,66.9,30.04,SW,233,0.0,0.0,63,0.00,,BKN120,0.00,VWS V14.01,2013-12-04 22:10:00,
2013-12-04 17:15:00,80.2,66.5,30.04,SW,233,0.0,0.0,63,0.00,,BKN120,0.00,VWS V14.01,2013-12-04 22:15:00,
2013-12-04 17:20:00,79.8,66.6,30.04,SW,233,0.0,0.0,64,0.00,,BKN120,0.00,VWS V14.01,2013-12-04 22:20:00,
2013-12-04 17:25:00,79.3,66.5,30.04,SW,233,0.0,0.0,65,0.00,,BKN120,0.00,VWS V14.01,2013-12-04 22:25:00,
2013-12-04 17:30:00,78.9,66.6,30.04,SW,233,0.0,0.0,66,0.00,,BKN120,0.00,VWS V14.01,2013-12-04 22:30:00,
2013-12-04 17:35:00,78.6,66.7,30.04,SW,233,0.0,0.0,67,0.00,,BKN250,0.00,VWS V14.01,2013-12-04 22:35:00,
2013-12-04 17:40:00,77.9,66.5,30.04,SW,233,0.0,0.0,68,0.00,,BKN250,0.00,VWS V14.01,2013-12-04 22:40:00,
2013-12-04 17:45:00,77.6,66.2,30.05,SW,233,0.0,0.0,68,0.00,,BKN250,0.00,VWS V14.01,2013-12-04 22:45:00,
2013-12-04 17:50:00,77.3,66.3,30.05,SW,233,0.0,0.0,69,0.00,,BKN250,0.00,VWS V14.01,2013-12-04 22:50:00,
2013-12-04 17:55:00,77.0,66.5,30.05,SW,233,0.0,0.0,70,0.00,,BKN250,0.00,VWS V14.01,2013-12-04 22:55:00,
2013-12-04 18:00:00,76.5,66.4,30.06,SW,233,0.0,0.0,71,0.00,,BKN250,0.00,VWS V14.01,2013-12-04 23:00:00,
2013-12-04 18:05:00,76.0,66.3,30.06,SW,233,0.0,0.0,72,0.00,,BKN250,0.00,VWS V14.01,2013-12-04 23:05:00,
2013-12-04 18:10:00,75.5,66.2,30.06,SW,233,0.0,0.0,73,0.00,,BKN250,0.00,VWS V14.01,2013-12-04 23:10:00,
2013-12-04 18:15:00,75.0,66.2,30.06,SW,233,0.0,0.0,74,0.00,,BKN250,0.00,VWS V14.01,2013-12-04 23:15:00,
2013-12-04 18:20:00,74.7,66.3,30.06,SW,233,0.0,0.0,75,0.00,,BKN250,0.00,VWS V14.01,2013-12-04 23:20:00,
2013-12-04 18:25:00,74.5,66.4,30.05,SW,233,0.0,0.0,76,0.00,,BKN250,0.00,VWS V14.01,2013-12-04 23:25:00,
2013-12-04 18:30:00,74.3,66.2,30.05,SW,233,0.0,0.0,76,0.00,,BKN250,0.00,VWS V14.01,2013-12-04 23:30:00,
2013-12-04 18:35:00,74.0,66.0,30.06,SW,233,0.0,0.0,76,0.00,,BKN250,0.00,VWS V14.01,2013-12-04 23:35:00,
2013-12-04 18:40:00,73.7,66.1,30.06,SW,233,0.0,0.0,77,0.00,,BKN250,0.00,VWS V14.01,2013-12-04 23:40:00,
2013-12-04 18:45:00,73.5,65.9,30.06,SW,233,0.0,0.0,77,0.00,,BKN250,0.00,VWS V14.01,2013-12-04 23:45:00,
2013-12-04 18:50:00,73.3,65.7,30.06,SW,233,0.0,0.0,77,0.00,,BKN250,0.00,VWS V14.01,2013-12-04 23:50:00,
2013-12-04 18:55:00,73.0,65.7,30.06,SW,233,0.0,0.0,78,0.00,,BKN250,0.00,VWS V14.01,2013-12-04 23:55:00,
2013-12-04 19:00:00,72.8,65.6,30.06,SW,233,0.0,0.0,78,0.00,,BKN250,0.00,VWS V14.01,2013-12-05 00:00:00,
2013-12-04 19:05:00,72.6,65.3,30.06,SW,233,0.0,0.0,78,0.00,,BKN250,0.00,VWS V14.01,2013-12-05 00:05:00,
2013-12-04 19:10:00,72.4,65.5,30.06,SW,233,0.0,0.0,79,0.00,,BKN250,0.00,VWS V14.01,2013-12-05 00:10:00,
2013-12-04 19:15:00,72.2,65.3,30.06,SW,233,0.0,0.0,79,0.00,,BKN250,0.00,VWS V14.01,2013-12-05 00:15:00,
2013-12-04 19:20:00,72.0,65.1,30.06,SW,233,0.0,0.0,79,0.00,,BKN250,0.00,VWS V14.01,2013-12-05 00:20:00,
2013-12-04 19:25:00,71.8,64.9,30.06,SW,233,0.0,0.0,79,0.00,,BKN250,0.00,VWS V14.01,2013-12-05 00:25:00,
2013-12-04 19:30:00,71.5,65.0,30.07,SW,233,0.0,0.0,80,0.00,,BKN250,0.00,VWS V14.01,2013-12-05 00:30:00,
2013-12-04 19:35:00,71.3,64.8,30.07,SW,233,0.0,0.0,80,0.00,,BKN250,0.00,VWS V14.01,2013-12-05 00:35:00,
2013-12-04 19:40:00,71.1,64.6,30.07,SW,233,0.0,0.0,80,0.00,,BKN250,0.00,VWS V14.01,2013-12-05 00:40:00,
2013-12-04 19:45:00,70.9,64.8,30.07,SW,233,0.0,0.0,81,0.00,,BKN250,0.00,VWS V14.01,2013-12-05 00:45:00,
2013-12-04 19:50:00,70.7,64.9,30.07,SW,233,0.0,0.0,82,0.00,,BKN250,0.00,VWS V14.01,2013-12-05 00:50:00,
2013-12-04 19:55:00,70.6,64.8,30.08,SW,233,0.0,0.0,82,0.00,,BKN250,0.00,VWS V14.01,2013-12-05 00:55:00,
2013-12-04 20:00:00,70.4,64.7,30.08,SW,233,0.0,0.0,82,0.00,,BKN250,0.00,VWS V14.01,2013-12-05 01:00:00,
2013-12-04 20:05:00,70.3,64.6,30.08,SW,233,0.0,0.0,82,0.00,,BKN250,0.00,VWS V14.01,2013-12-05 01:05:00,
2013-12-04 20:10:00,70.1,64.4,30.08,SW,233,0.0,0.0,82,0.00,,BKN250,0.00,VWS V14.01,2013-12-05 01:10:00,
2013-12-04 20:15:00,70.0,64.3,30.08,SW,233,0.0,0.0,82,0.00,,BKN250,0.00,VWS V14.01,2013-12-05 01:15:00,
2013-12-04 20:20:00,69.8,64.4,30.08,SW,233,0.0,0.0,83,0.00,,BKN250,0.00,VWS V14.01,2013-12-05 01:20:00,
2013-12-04 20:25:00,69.7,64.3,30.08,SW,233,0.0,0.0,83,0.00,,BKN250,0.00,VWS V14.01,2013-12-05 01:25:00,
2013-12-04 20:30:00,69.5,64.1,30.08,SW,233,0.0,0.0,83,0.00,,BKN250,0.00,VWS V14.01,2013-12-05 01:30:00,
2013-12-04 20:35:00,69.3,63.9,30.08,SW,233,0.0,0.0,83,0.00,,SCT250,0.00,VWS V14.01,2013-12-05 01:35:00,
2013-12-04 20:40:00,69.2,64.2,30.08,SW,233,0.0,0.0,84,0.00,,SCT250,0.00,VWS V14.01,2013-12-05 01:40:00,
2013-12-04 20:45:00,69.0,64.0,30.08,SW,233,0.0,0.0,84,0.00,,SCT250,0.00,VWS V14.01,2013-12-05 01:45:00,
2013-12-04 20:50:00,68.8,63.8,30.08,SW,233,0.0,0.0,84,0.00,,SCT250,0.00,VWS V14.01,2013-12-05 01:50:00,
2013-12-04 20:55:00,68.7,63.7,30.08,SW,233,0.0,0.0,84,0.00,,SCT250,0.00,VWS V14.01,2013-12-05 01:55:00,
2013-12-04 21:00:00,68.6,63.6,30.08,SW,233,0.0,0.0,84,0.00,,SCT250,0.00,VWS V14.01,2013-12-05 02:00:00,
2013-12-04 21:05:00,68.4,63.4,30.08,SW,233,0.0,0.0,84,0.00,,SCT250,0.00,VWS V14.01,2013-12-05 02:05:00,
2013-12-04 21:10:00,68.3,63.3,30.08,SW,233,0.0,0.0,84,0.00,,SCT250,0.00,VWS V14.01,2013-12-05 02:10:00,
2013-12-04 21:15:00,68.1,63.4,30.08,SW,233,0.0,0.0,85,0.00,,SCT250,0.00,VWS V14.01,2013-12-05 02:15:00,
2013-12-04 21:20:00,68.0,63.3,30.08,SW,233,0.0,0.0,85,0.00,,SCT250,0.00,VWS V14.01,2013-12-05 02:20:00,
2013-12-04 21:25:00,67.8,63.1,30.08,SW,233,0.0,0.0,85,0.00,,SCT250,0.00,VWS V14.01,2013-12-05 02:25:00,
2013-12-04 21:30:00,67.7,63.0,30.08,SW,233,0.0,0.0,85,0.00,,SCT250,0.00,VWS V14.01,2013-12-05 02:30:00,
2013-12-04 21:35:00,67.6,62.9,30.08,SW,233,0.0,0.0,85,0.00,,SCT250,0.00,VWS V14.01,2013-12-05 02:35:00,
2013-12-04 21:40:00,67.5,62.8,30.08,SW,233,0.0,0.0,85,0.00,,SCT250,0.00,VWS V14.01,2013-12-05 02:40:00,
2013-12-04 21:45:00,67.3,63.0,30.08,SW,233,0.0,0.0,86,0.00,,SCT250,0.00,VWS V14.01,2013-12-05 02:45:00,
2013-12-04 21:50:00,67.2,62.9,30.08,SW,233,0.0,0.0,86,0.00,,SCT250,0.00,VWS V14.01,2013-12-05 02:50:00,
2013-12-04 21:55:00,67.0,62.7,30.08,SW,233,0.0,0.0,86,0.00,,SCT250,0.00,VWS V14.01,2013-12-05 02:55:00,
2013-12-04 22:00:00,66.9,62.6,30.08,SW,233,0.0,0.0,86,0.00,,SCT250,0.00,VWS V14.01,2013-12-05 03:00:00,
2013-12-04 22:05:00,66.8,62.5,30.08,SW,233,0.0,0.0,86,0.00,,SCT250,0.00,VWS V14.01,2013-12-05 03:05:00,
2013-12-04 22:10:00,66.7,62.4,30.08,SW,233,0.0,0.0,86,0.00,,SCT250,0.00,VWS V14.01,2013-12-05 03:10:00,
2013-12-04 22:15:00,66.7,62.4,30.08,SW,233,0.0,0.0,86,0.00,,SCT250,0.00,VWS V14.01,2013-12-05 03:15:00,
2013-12-04 22:20:00,66.6,62.3,30.09,SW,233,0.0,0.0,86,0.00,,SCT250,0.00,VWS V14.01,2013-12-05 03:20:00,
2013-12-04 22:25:00,66.5,62.5,30.09,SW,233,0.0,0.0,87,0.00,,SCT250,0.00,VWS V14.01,2013-12-05 03:25:00,
2013-12-04 22:30:00,66.4,62.4,30.09,SW,233,0.0,0.0,87,0.00,,SCT250,0.00,VWS V14.01,2013-12-05 03:30:00,
2013-12-04 22:35:00,66.3,62.0,30.09,SW,233,0.0,0.0,86,0.00,,CLR,0.00,VWS V14.01,2013-12-05 03:35:00,
2013-12-04 22:40:00,66.2,62.2,30.09,SW,233,0.0,0.0,87,0.00,,CLR,0.00,VWS V14.01,2013-12-05 03:40:00,
2013-12-04 22:45:00,66.1,62.1,30.09,SW,233,0.0,0.0,87,0.00,,CLR,0.00,VWS V14.01,2013-12-05 03:45:00,
2013-12-04 22:50:00,66.0,62.0,30.09,SW,233,0.0,0.0,87,0.00,,CLR,0.00,VWS V14.01,2013-12-05 03:50:00,
2013-12-04 22:55:00,65.9,61.9,30.09,SW,233,0.0,0.0,87,0.00,,CLR,0.00,VWS V14.01,2013-12-05 03:55:00,
2013-12-04 23:00:00,65.8,61.8,30.09,SW,233,0.0,0.0,87,0.00,,CLR,0.00,VWS V14.01,2013-12-05 04:00:00,
2013-12-04 23:05:00,65.7,61.7,30.09,SW,233,0.0,0.0,87,0.00,,CLR,0.00,VWS V14.01,2013-12-05 04:05:00,
2013-12-04 23:10:00,65.6,61.6,30.09,SW,233,0.0,0.0,87,0.00,,CLR,0.00,VWS V14.01,2013-12-05 04:10:00,
2013-12-04 23:15:00,65.5,61.5,30.09,SW,233,0.0,0.0,87,0.00,,CLR,0.00,VWS V14.01,2013-12-05 04:15:00,
2013-12-04 23:20:00,65.4,61.4,30.10,SW,233,0.0,0.0,87,0.00,,CLR,0.00,VWS V14.01,2013-12-05 04:20:00,
2013-12-04 23:25:00,65.3,61.3,30.10,SW,233,0.0,0.0,87,0.00,,CLR,0.00,VWS V14.01,2013-12-05 04:25:00,
2013-12-04 23:30:00,65.2,61.2,30.10,SW,233,0.0,0.0,87,0.00,,CLR,0.00,VWS V14.01,2013-12-05 04:30:00,
2013-12-04 23:35:00,65.1,61.1,30.10,SW,233,0.0,0.0,87,0.00,,CLR,0.00,VWS V14.01,2013-12-05 04:35:00,
2013-12-04 23:40:00,65.0,61.0,30.10,SW,233,0.0,0.0,87,0.00,,CLR,0.00,VWS V14.01,2013-12-05 04:40:00,
2013-12-04 23:45:00,64.9,60.9,30.10,SW,233,0.0,0.0,87,0.00,,CLR,0.00,VWS V14.01,2013-12-05 04:45:00,
2013-12-04 23:50:00,64.7,60.8,30.10,SW,233,0.0,0.0,87,0.00,,CLR,0.00,VWS V14.01,2013-12-05 04:50:00,
2013-12-04 23:55:00,64.7,60.8,30.10,SW,233,0.0,0.0,87,0.00,,CLR,0.00,VWS V14.01,2013-12-05 04:55:00,